Powrót do katalogu

COSMOS 1134

AktywnyMilitariaLEO
NORAD 11542·PAYLOAD·🇷🇺 Russia

Wystrzelony Sep 25, 1979 z Plesetsk Cosmodrome

Loading…

Następne Przeloty (najbliższe 24 godziny)

TLE

ŚwieżeSource: Space-Track

Epoka: Sep 14, 2026, 09:59 UTC

1 11542U 79084E   26257.41607795 -.00000026  00000-0 -69318-4 0  9993
2 11542  74.0214 247.2392 0019518 330.1101 101.9387 12.49080832141759

Śledź COSMOS 1134 w czasie rzeczywistym z AllMySat

Download on the App Store